Tabellarische Ansicht des 30.8.2007


Die einzelnen Werte des Tages

Uhrzeit Temperatur Luftdruck Luftfeuchte Wind Hi-Wind Taupunkt THW Index Wind Chill Heat Index Solar- strahlung Regen

00:00

9.4 C

1017.6 hpa

90 %

3.2 km/h aus 117

4.8 km/h aus NNW

7.8 C

9.6 C

9.4 C

9.6 C

0 W/m

0.00 mm

00:05

9.3 C

1017.6 hpa

90 %

3.2 km/h aus 116

4.8 km/h aus NNW

7.8 C

9.5 C

9.3 C

9.5 C

0 W/m

0.00 mm

00:10

9.2 C

1017.6 hpa

91 %

3.2 km/h aus 117

3.2 km/h aus NNW

7.8 C

9.4 C

9.2 C

9.4 C

0 W/m

0.00 mm

00:15

9.2 C

1017.6 hpa

91 %

0.0 km/h aus 117

3.2 km/h aus NNW

7.8 C

9.4 C

9.2 C

9.4 C

0 W/m

0.00 mm

00:20

9.3 C

1017.6 hpa

91 %

0.0 km/h aus 117

1.6 km/h aus NNW

7.9 C

9.5 C

9.3 C

9.5 C

0 W/m

0.00 mm

00:25

9.4 C

1017.6 hpa

90 %

0.0 km/h aus 117

1.6 km/h aus NNW

7.8 C

9.6 C

9.4 C

9.6 C

0 W/m

0.00 mm

00:30

9.3 C

1017.6 hpa

90 %

0.0 km/h aus 117

0.0 km/h aus ---

7.8 C

9.5 C

9.3 C

9.5 C

0 W/m

0.00 mm

00:35

9.3 C

1017.6 hpa

91 %

0.0 km/h aus 117

0.0 km/h aus ---

7.9 C

9.5 C

9.3 C

9.5 C

0 W/m

0.00 mm

00:40

9.3 C

1017.6 hpa

91 %

0.0 km/h aus 117

3.2 km/h aus NNW

7.9 C

9.4 C

9.3 C

9.4 C

0 W/m

0.00 mm

00:45

9.3 C

1017.8 hpa

91 %

1.6 km/h aus 117

3.2 km/h aus NNW

7.9 C

9.4 C

9.3 C

9.4 C

0 W/m

0.00 mm

00:50

9.2 C

1017.8 hpa

91 %

1.6 km/h aus 117

3.2 km/h aus NNW

7.8 C

9.4 C

9.2 C

9.4 C

0 W/m

0.00 mm

00:55

9.2 C

1017.8 hpa

91 %

0.0 km/h aus 116

1.6 km/h aus NNW

7.8 C

9.4 C

9.2 C

9.4 C

0 W/m

0.00 mm

01:00

9.3 C

1017.9 hpa

91 %

0.0 km/h aus 117

0.0 km/h aus ---

7.9 C

9.4 C

9.3 C

9.4 C

0 W/m

0.00 mm

01:05

9.2 C

1017.9 hpa

91 %

1.6 km/h aus 117

3.2 km/h aus NNW

7.8 C

9.4 C

9.2 C

9.4 C

0 W/m

0.00 mm

01:10

9.1 C

1017.9 hpa

91 %

1.6 km/h aus 116

3.2 km/h aus NNW

7.7 C

9.2 C

9.1 C

9.2 C

0 W/m

0.00 mm

01:15

9.1 C

1017.6 hpa

92 %

0.0 km/h aus 117

0.0 km/h aus ---

7.8 C

9.2 C

9.1 C

9.2 C

0 W/m

0.00 mm

01:20

8.9 C

1017.6 hpa

91 %

1.6 km/h aus 117

3.2 km/h aus NNW

7.6 C

9.1 C

8.9 C

9.1 C

0 W/m

0.00 mm

01:25

8.9 C

1017.6 hpa

92 %

1.6 km/h aus 117

3.2 km/h aus NNW

7.7 C

9.1 C

8.9 C

9.1 C

0 W/m

0.00 mm

01:30

8.9 C

1017.5 hpa

92 %

1.6 km/h aus 117

3.2 km/h aus NNW

7.7 C

9.1 C

8.9 C

9.1 C

0 W/m

0.00 mm

01:35

8.8 C

1017.5 hpa

92 %

3.2 km/h aus 116

4.8 km/h aus NNW

7.6 C

9.0 C

8.8 C

9.0 C

0 W/m

0.00 mm

01:40

8.7 C

1017.5 hpa

92 %

3.2 km/h aus 117

4.8 km/h aus NNW

7.5 C

8.9 C

8.7 C

8.9 C

0 W/m

0.00 mm

01:45

8.7 C

1017.5 hpa

92 %

3.2 km/h aus 117

4.8 km/h aus NNW

7.4 C

8.8 C

8.7 C

8.8 C

0 W/m

0.00 mm

01:50

8.6 C

1017.5 hpa

93 %

3.2 km/h aus 117

4.8 km/h aus NNW

7.5 C

8.8 C

8.6 C

8.8 C

0 W/m

0.00 mm

01:55

8.7 C

1017.5 hpa

93 %

1.6 km/h aus 116

1.6 km/h aus NNW

7.6 C

8.8 C

8.7 C

8.8 C

0 W/m

0.00 mm

02:00

8.7 C

1017.4 hpa

92 %

0.0 km/h aus 117

1.6 km/h aus NNW

7.4 C

8.8 C

8.7 C

8.8 C

0 W/m

0.00 mm

02:05

8.7 C

1017.4 hpa

92 %

0.0 km/h aus 116

1.6 km/h aus NNW

7.4 C

8.8 C

8.7 C

8.8 C

0 W/m

0.00 mm

02:10

8.6 C

1017.4 hpa

92 %

0.0 km/h aus 118

1.6 km/h aus NNW

7.4 C

8.8 C

8.6 C

8.8 C

0 W/m

0.00 mm

02:15

8.5 C

1017.4 hpa

92 %

0.0 km/h aus 117

0.0 km/h aus ---

7.3 C

8.7 C

8.5 C

8.7 C

0 W/m

0.00 mm

02:20

8.5 C

1017.4 hpa

92 %

0.0 km/h aus 117

0.0 km/h aus ---

7.3 C

8.7 C

8.5 C

8.7 C

0 W/m

0.00 mm

02:25

8.4 C

1017.4 hpa

92 %

0.0 km/h aus 117

0.0 km/h aus ---

7.2 C

8.5 C

8.4 C

8.5 C

0 W/m

0.00 mm

02:30

8.1 C

1017.2 hpa

92 %

0.0 km/h aus 117

0.0 km/h aus ---

6.9 C

8.2 C

8.1 C

8.2 C

0 W/m

0.00 mm

02:35

7.8 C

1017.2 hpa

92 %

0.0 km/h aus 116

3.2 km/h aus NNW

6.6 C

7.9 C

7.8 C

7.9 C

0 W/m

0.00 mm

02:40

7.7 C

1017.2 hpa

93 %

3.2 km/h aus 117

3.2 km/h aus NNW

6.7 C

7.8 C

7.7 C

7.8 C

0 W/m

0.00 mm

02:45

7.7 C

1017.1 hpa

93 %

3.2 km/h aus 117

4.8 km/h aus NNW

6.7 C

7.8 C

7.7 C

7.8 C

0 W/m

0.00 mm

02:50

7.8 C

1017.1 hpa

93 %

3.2 km/h aus 117

3.2 km/h aus NNW

6.7 C

7.9 C

7.8 C

7.9 C

0 W/m

0.00 mm

02:55

7.8 C

1017.1 hpa

93 %

1.6 km/h aus 117

3.2 km/h aus NNW

6.8 C

7.9 C

7.8 C

7.9 C

0 W/m

0.00 mm

03:00

7.8 C

1017.0 hpa

93 %

3.2 km/h aus 117

4.8 km/h aus NNW

6.7 C

7.9 C

7.8 C

7.9 C

0 W/m

0.00 mm

03:05

7.7 C

1017.0 hpa

93 %

4.8 km/h aus 117

4.8 km/h aus NNW

6.7 C

7.4 C

7.3 C

7.8 C

0 W/m

0.00 mm

03:10

7.8 C

1017.0 hpa

93 %

3.2 km/h aus 117

4.8 km/h aus NNW

6.7 C

7.9 C

7.8 C

7.9 C

0 W/m

0.00 mm

03:15

7.8 C

1017.0 hpa

93 %

4.8 km/h aus 118

4.8 km/h aus NNW

6.8 C

7.5 C

7.4 C

7.9 C

0 W/m

0.00 mm

03:20

7.8 C

1017.0 hpa

93 %

4.8 km/h aus 117

6.4 km/h aus NNW

6.7 C

7.4 C

7.3 C

7.9 C

0 W/m

0.00 mm

03:25

7.8 C

1017.0 hpa

93 %

3.2 km/h aus 117

6.4 km/h aus NNW

6.8 C

7.9 C

7.8 C

7.9 C

0 W/m

0.00 mm

03:30

7.8 C

1017.0 hpa

93 %

1.6 km/h aus 117

3.2 km/h aus NNW

6.8 C

7.9 C

7.8 C

7.9 C

0 W/m

0.00 mm

03:35

8.0 C

1017.0 hpa

93 %

1.6 km/h aus 117

3.2 km/h aus NNW

6.9 C

8.1 C

8.0 C

8.1 C

0 W/m

0.00 mm

03:40

8.1 C

1017.0 hpa

93 %

1.6 km/h aus 117

3.2 km/h aus NNW

7.0 C

8.2 C

8.1 C

8.2 C

0 W/m

0.00 mm

03:45

7.9 C

1017.0 hpa

92 %

0.0 km/h aus 117

1.6 km/h aus NNW

6.7 C

8.1 C

7.9 C

8.1 C

0 W/m

0.00 mm

03:50

7.7 C

1017.0 hpa

92 %

1.6 km/h aus 117

4.8 km/h aus NNW

6.4 C

7.8 C

7.7 C

7.8 C

0 W/m

0.00 mm

03:55

7.4 C

1017.0 hpa

93 %

4.8 km/h aus 117

6.4 km/h aus S

6.3 C

7.0 C

6.9 C

7.5 C

0 W/m

0.00 mm

04:00

7.4 C

1017.0 hpa

93 %

4.8 km/h aus 116

6.4 km/h aus S

6.3 C

7.0 C

6.9 C

7.5 C

0 W/m

0.00 mm

04:05

7.5 C

1017.0 hpa

93 %

3.2 km/h aus 116

6.4 km/h aus S

6.4 C

7.6 C

7.5 C

7.6 C

0 W/m

0.00 mm

04:10

7.4 C

1017.0 hpa

93 %

6.4 km/h aus 107

8.0 km/h aus S

6.4 C

6.5 C

6.4 C

7.6 C

0 W/m

0.00 mm

04:15

7.7 C

1017.0 hpa

94 %

6.4 km/h aus 112

9.7 km/h aus SSW

6.8 C

6.8 C

6.7 C

7.8 C

0 W/m

0.00 mm

04:20

8.0 C

1017.0 hpa

94 %

6.4 km/h aus 114

11.3 km/h aus SSW

7.1 C

7.2 C

7.1 C

8.2 C

0 W/m

0.00 mm

04:25

8.3 C

1017.0 hpa

94 %

6.4 km/h aus 108

9.7 km/h aus SSW

7.4 C

7.6 C

7.4 C

8.5 C

0 W/m

0.00 mm

04:30

8.6 C

1016.9 hpa

93 %

6.4 km/h aus 114

11.3 km/h aus SSW

7.5 C

7.9 C

7.8 C

8.8 C

0 W/m

0.00 mm

04:35

8.8 C

1016.9 hpa

93 %

6.4 km/h aus 114

11.3 km/h aus SW

7.7 C

8.2 C

8.0 C

8.9 C

0 W/m

0.00 mm

04:40

8.9 C

1016.9 hpa

92 %

6.4 km/h aus 111

9.7 km/h aus SSW

7.7 C

8.3 C

8.1 C

9.1 C

0 W/m

0.00 mm

04:45

9.0 C

1017.0 hpa

96 %

6.4 km/h aus 115

11.3 km/h aus SW

8.4 C

8.5 C

8.2 C

9.3 C

0 W/m

0.00 mm

04:50

9.1 C

1017.0 hpa

91 %

6.4 km/h aus 114

11.3 km/h aus SSW

7.7 C

8.5 C

8.3 C

9.3 C

0 W/m

0.00 mm

04:55

9.2 C

1017.0 hpa

91 %

6.4 km/h aus 111

11.3 km/h aus SSW

7.8 C

8.6 C

8.4 C

9.3 C

0 W/m

0.00 mm

05:00

9.2 C

1016.8 hpa

90 %

6.4 km/h aus 110

14.5 km/h aus SW

7.6 C

8.6 C

8.4 C

9.3 C

0 W/m

0.00 mm

05:05

9.2 C

1016.8 hpa

90 %

6.4 km/h aus 113

9.7 km/h aus SW

7.7 C

8.7 C

8.5 C

9.4 C

0 W/m

0.00 mm

05:10

9.3 C

1016.8 hpa

90 %

6.4 km/h aus 112

11.3 km/h aus SW

7.7 C

8.7 C

8.6 C

9.4 C

0 W/m

0.00 mm

05:15

9.3 C

1016.7 hpa

90 %

8.0 km/h aus 113

14.5 km/h aus SW

7.8 C

8.4 C

8.2 C

9.5 C

0 W/m

0.00 mm

05:20

9.3 C

1016.7 hpa

90 %

6.4 km/h aus 111

9.7 km/h aus SSW

7.8 C

8.8 C

8.6 C

9.5 C

0 W/m

0.00 mm

05:25

9.3 C

1016.7 hpa

90 %

6.4 km/h aus 111

11.3 km/h aus SSW

7.7 C

8.7 C

8.6 C

9.4 C

0 W/m

0.00 mm

05:30

9.2 C

1016.5 hpa

90 %

8.0 km/h aus 111

14.5 km/h aus SSW

7.7 C

8.3 C

8.1 C

9.4 C

0 W/m

0.00 mm

05:35

9.2 C

1016.5 hpa

90 %

6.4 km/h aus 114

12.9 km/h aus SSW

7.6 C

8.6 C

8.4 C

9.3 C

0 W/m

0.00 mm

05:40

9.2 C

1016.5 hpa

90 %

4.8 km/h aus 108

11.3 km/h aus SSW

7.6 C

9.1 C

8.9 C

9.3 C

0 W/m

0.00 mm

05:45

9.1 C

1016.5 hpa

90 %

6.4 km/h aus 115

9.7 km/h aus SSW

7.6 C

8.4 C

8.3 C

9.2 C

0 W/m

0.00 mm

05:50

9.1 C

1016.5 hpa

90 %

6.4 km/h aus 112

11.3 km/h aus SSW

7.5 C

8.4 C

8.3 C

9.2 C

0 W/m

0.00 mm

05:55

9.0 C

1016.5 hpa

94 %

6.4 km/h aus 108

9.7 km/h aus SSW

8.1 C

8.4 C

8.2 C

9.2 C

0 W/m

0.00 mm

06:00

8.9 C

1016.5 hpa

90 %

8.0 km/h aus 116

11.3 km/h aus SSW

7.4 C

7.9 C

7.8 C

9.1 C

0 W/m

0.00 mm

06:05

9.1 C

1016.5 hpa

90 %

6.4 km/h aus 111

11.3 km/h aus SW

7.5 C

8.4 C

8.3 C

9.2 C

0 W/m

0.00 mm

06:10

9.1 C

1016.5 hpa

90 %

6.4 km/h aus 111

11.3 km/h aus SSW

7.6 C

8.4 C

8.3 C

9.2 C

0 W/m

0.00 mm

06:15

9.2 C

1016.5 hpa

90 %

6.4 km/h aus 114

11.3 km/h aus SW

7.6 C

8.6 C

8.4 C

9.3 C

0 W/m

0.00 mm

06:20

9.2 C

1016.5 hpa

89 %

6.4 km/h aus 111

11.3 km/h aus SSW

7.5 C

8.6 C

8.5 C

9.3 C

0 W/m

0.00 mm

06:25

9.2 C

1016.5 hpa

89 %

6.4 km/h aus 112

14.5 km/h aus SSW

7.4 C

8.6 C

8.4 C

9.3 C

0 W/m

0.00 mm

06:30

9.2 C

1016.5 hpa

89 %

6.4 km/h aus 111

8.0 km/h aus SSW

7.4 C

8.6 C

8.4 C

9.3 C

0 W/m

0.00 mm

06:35

9.2 C

1016.5 hpa

89 %

6.4 km/h aus 112

9.7 km/h aus SSW

7.5 C

8.6 C

8.5 C

9.3 C

0 W/m

0.00 mm

06:40

9.3 C

1016.5 hpa

90 %

6.4 km/h aus 115

9.7 km/h aus SSW

7.8 C

8.8 C

8.6 C

9.5 C

0 W/m

0.00 mm

06:45

9.5 C

1016.5 hpa

89 %

4.8 km/h aus 112

8.0 km/h aus SSW

7.8 C

9.4 C

9.2 C

9.7 C

0 W/m

0.00 mm

06:50

9.6 C

1016.5 hpa

89 %

4.8 km/h aus 114

8.0 km/h aus SSW

7.9 C

9.6 C

9.4 C

9.8 C

0 W/m

0.00 mm

06:55

9.8 C

1016.5 hpa

92 %

4.8 km/h aus 112

9.7 km/h aus SW

8.6 C

9.8 C

9.6 C

10.1 C

0 W/m

0.00 mm

07:00

10.0 C

1016.5 hpa

88 %

4.8 km/h aus 113

9.7 km/h aus SW

8.1 C

9.9 C

9.8 C

10.1 C

0 W/m

0.00 mm

07:05

10.1 C

1016.5 hpa

87 %

4.8 km/h aus 112

8.0 km/h aus WSW

8.0 C

10.1 C

9.9 C

10.2 C

0 W/m

0.00 mm

07:10

10.2 C

1016.5 hpa

87 %

6.4 km/h aus 115

11.3 km/h aus SW

8.1 C

9.6 C

9.6 C

10.2 C

0 W/m

0.00 mm

07:15

10.2 C

1016.5 hpa

87 %

6.4 km/h aus 115

11.3 km/h aus SW

8.2 C

9.7 C

9.6 C

10.3 C

0 W/m

0.00 mm

07:20

10.2 C

1016.5 hpa

87 %

6.4 km/h aus 111

9.7 km/h aus SW

8.1 C

9.6 C

9.6 C

10.2 C

0 W/m

0.00 mm

07:25

10.2 C

1016.5 hpa

87 %

6.4 km/h aus 113

8.0 km/h aus SW

8.2 C

9.7 C

9.6 C

10.3 C

0 W/m

0.00 mm

07:30

10.3 C

1016.5 hpa

87 %

4.8 km/h aus 113

9.7 km/h aus SSW

8.3 C

10.3 C

10.2 C

10.4 C

0 W/m

0.00 mm

07:35

10.4 C

1016.5 hpa

87 %

6.4 km/h aus 104

11.3 km/h aus SSW

8.4 C

9.9 C

9.9 C

10.5 C

0 W/m

0.00 mm

07:40

10.6 C

1016.5 hpa

86 %

4.8 km/h aus 112

11.3 km/h aus S

8.4 C

10.5 C

10.5 C

10.6 C

0 W/m

0.00 mm

07:45

10.7 C

1016.6 hpa

85 %

4.8 km/h aus 109

8.0 km/h aus SW

8.3 C

10.6 C

10.6 C

10.7 C

0 W/m

0.00 mm

07:50

10.7 C

1016.6 hpa

85 %

8.0 km/h aus 115

14.5 km/h aus WSW

8.3 C

9.9 C

9.9 C

10.7 C

0 W/m

0.00 mm

07:55

10.8 C

1016.6 hpa

84 %

8.0 km/h aus 112

16.1 km/h aus SSW

8.2 C

9.9 C

9.9 C

10.8 C

0 W/m

0.00 mm

08:00

10.8 C

1016.6 hpa

84 %

8.0 km/h aus 114

14.5 km/h aus SSW

8.2 C

10.0 C

10.0 C

10.8 C

0 W/m

0.00 mm

08:05

10.8 C

1016.6 hpa

84 %

8.0 km/h aus 110

12.9 km/h aus SW

8.2 C

10.0 C

10.0 C

10.8 C

0 W/m

0.00 mm

08:10

10.8 C

1016.6 hpa

84 %

8.0 km/h aus 112

14.5 km/h aus WSW

8.2 C

10.0 C

10.0 C

10.8 C

0 W/m

0.00 mm

08:15

10.9 C

1016.7 hpa

84 %

8.0 km/h aus 113

16.1 km/h aus SW

8.3 C

10.1 C

10.1 C

10.9 C

0 W/m

0.00 mm

08:20

11.1 C

1016.7 hpa

84 %

8.0 km/h aus 109

11.3 km/h aus SW

8.5 C

10.3 C

10.3 C

11.1 C

0 W/m

0.00 mm

08:25

11.2 C

1016.7 hpa

83 %

9.7 km/h aus 112

16.1 km/h aus SW

8.4 C

10.0 C

10.1 C

11.1 C

0 W/m

0.00 mm

08:30

11.2 C

1016.8 hpa

83 %

9.7 km/h aus 116

16.1 km/h aus SW

8.4 C

10.1 C

10.1 C

11.2 C

0 W/m

0.00 mm

08:35

11.2 C

1016.8 hpa

82 %

11.3 km/h aus 111

19.3 km/h aus SW

8.3 C

9.8 C

9.9 C

11.2 C

0 W/m

0.00 mm

08:40

11.1 C

1016.8 hpa

82 %

9.7 km/h aus 110

17.7 km/h aus SSW

8.2 C

9.9 C

10.0 C

11.1 C

0 W/m

0.00 mm

08:45

11.2 C

1016.7 hpa

83 %

9.7 km/h aus 115

16.1 km/h aus SSW

8.4 C

10.0 C

10.1 C

11.1 C

0 W/m

0.00 mm

08:50

11.4 C

1016.7 hpa

82 %

9.7 km/h aus 109

16.1 km/h aus SSW

8.5 C

10.3 C

10.4 C

11.3 C

0 W/m

0.00 mm

08:55

11.8 C

1016.7 hpa

82 %

8.0 km/h aus 113

14.5 km/h aus SSW

8.8 C

10.9 C

11.1 C

11.7 C

0 W/m

0.00 mm

09:00

12.2 C

1016.6 hpa

82 %

8.0 km/h aus 114

16.1 km/h aus SW

9.2 C

11.5 C

11.6 C

12.1 C

0 W/m

0.00 mm

09:05

12.7 C

1016.6 hpa

79 %

9.7 km/h aus 117

17.7 km/h aus SSW

9.1 C

11.7 C

11.9 C

12.5 C

0 W/m

0.00 mm

09:10

12.9 C

1016.6 hpa

79 %

9.7 km/h aus 115

16.1 km/h aus SW

9.4 C

12.1 C

12.2 C

12.8 C

0 W/m

0.00 mm

09:15

13.2 C

1016.5 hpa

77 %

8.0 km/h aus 114

16.1 km/h aus SSW

9.3 C

12.6 C

12.8 C

12.9 C

0 W/m

0.00 mm

09:20

13.6 C

1016.5 hpa

76 %

11.3 km/h aus 116

25.7 km/h aus W

9.4 C

12.4 C

12.7 C

13.3 C

0 W/m

0.00 mm

09:25

13.6 C

1016.5 hpa

75 %

11.3 km/h aus 111

20.9 km/h aus SW

9.2 C

12.4 C

12.7 C

13.2 C

0 W/m

0.00 mm

09:30

13.5 C

1016.5 hpa

76 %

11.3 km/h aus 115

19.3 km/h aus SW

9.4 C

12.4 C

12.7 C

13.2 C

0 W/m

0.00 mm

09:35

13.5 C

1016.5 hpa

76 %

11.3 km/h aus 116

19.3 km/h aus SSW

9.4 C

12.4 C

12.7 C

13.2 C

0 W/m

0.00 mm

09:40

13.6 C

1016.5 hpa

76 %

9.7 km/h aus 115

19.3 km/h aus SW

9.5 C

12.7 C

13.0 C

13.3 C

0 W/m

0.00 mm

09:45

13.7 C

1016.5 hpa

74 %

12.9 km/h aus 115

24.1 km/h aus WSW

9.2 C

12.2 C

12.5 C

13.4 C

0 W/m

0.00 mm

09:50

13.7 C

1016.5 hpa

75 %

14.5 km/h aus 115

22.5 km/h aus SSW

9.3 C

11.8 C

12.1 C

13.4 C

0 W/m

0.00 mm

09:55

13.6 C

1016.5 hpa

76 %

11.3 km/h aus 112

19.3 km/h aus SSW

9.4 C

12.4 C

12.7 C

13.3 C

0 W/m

0.00 mm

10:00

13.8 C

1016.5 hpa

76 %

11.3 km/h aus 113

19.3 km/h aus SSW

9.6 C

12.7 C

13.0 C

13.5 C

0 W/m

0.00 mm

10:05

13.8 C

1016.5 hpa

77 %

12.9 km/h aus 113

22.5 km/h aus SW

9.9 C

12.4 C

12.7 C

13.6 C

0 W/m

0.00 mm

10:10

14.1 C

1016.5 hpa

76 %

12.9 km/h aus 113

24.1 km/h aus SW

9.9 C

12.7 C

12.9 C

13.8 C

0 W/m

0.00 mm

10:15

14.3 C

1016.5 hpa

75 %

11.3 km/h aus 115

20.9 km/h aus WSW

10.0 C

13.4 C

13.7 C

14.1 C

0 W/m

0.00 mm

10:20

14.4 C

1016.5 hpa

76 %

12.9 km/h aus 109

22.5 km/h aus SW

10.2 C

13.1 C

13.3 C

14.2 C

0 W/m

0.00 mm

10:25

14.8 C

1016.5 hpa

76 %

8.0 km/h aus 111

19.3 km/h aus SSW

10.6 C

14.4 C

14.7 C

14.6 C

0 W/m

0.00 mm

10:30

15.0 C

1016.4 hpa

73 %

9.7 km/h aus 113

20.9 km/h aus WSW

10.2 C

14.3 C

14.7 C

14.7 C

0 W/m

0.00 mm

10:35

14.9 C

1016.4 hpa

74 %

12.9 km/h aus 115

24.1 km/h aus WSW

10.3 C

13.7 C

13.9 C

14.6 C

0 W/m

0.00 mm

10:40

15.0 C

1016.4 hpa

75 %

9.7 km/h aus 116

17.7 km/h aus W

10.6 C

14.4 C

14.7 C

14.7 C

0 W/m

0.00 mm

10:45

15.3 C

1016.4 hpa

74 %

8.0 km/h aus 115

17.7 km/h aus SW

10.7 C

14.9 C

15.2 C

15.0 C

0 W/m

0.00 mm

10:50

15.9 C

1016.4 hpa

72 %

6.4 km/h aus 109

19.3 km/h aus SW

10.8 C

15.6 C

15.9 C

15.6 C

0 W/m

0.00 mm

10:55

15.7 C

1016.4 hpa

72 %

12.9 km/h aus 114

24.1 km/h aus SW

10.6 C

14.6 C

14.8 C

15.4 C

0 W/m

0.00 mm

11:00

15.8 C

1016.4 hpa

70 %

12.9 km/h aus 115

24.1 km/h aus WSW

10.3 C

14.7 C

15.0 C

15.4 C

0 W/m

0.00 mm

11:05

15.9 C

1016.4 hpa

71 %

9.7 km/h aus 112

20.9 km/h aus WSW

10.7 C

15.5 C

15.8 C

15.7 C

0 W/m

0.00 mm

11:10

15.9 C

1016.4 hpa

69 %

11.3 km/h aus 109

22.5 km/h aus WSW

10.3 C

15.2 C

15.6 C

15.6 C

0 W/m

0.00 mm

11:15

16.2 C

1016.4 hpa

69 %

8.0 km/h aus 114

17.7 km/h aus SW

10.5 C

15.8 C

16.2 C

15.8 C

0 W/m

0.00 mm

11:20

16.4 C

1016.4 hpa

69 %

11.3 km/h aus 115

19.3 km/h aus WSW

10.7 C

15.8 C

16.2 C

16.1 C

0 W/m

0.00 mm

11:25

16.9 C

1016.4 hpa

68 %

8.0 km/h aus 113

17.7 km/h aus WSW

11.0 C

16.7 C

16.9 C

16.7 C

0 W/m

0.00 mm

11:30

17.1 C

1016.1 hpa

65 %

14.5 km/h aus 114

22.5 km/h aus SW

10.5 C

15.8 C

16.1 C

16.8 C

0 W/m

0.00 mm

11:35

17.3 C

1016.1 hpa

64 %

8.0 km/h aus 115

16.1 km/h aus WNW

10.4 C

16.9 C

17.3 C

16.9 C

0 W/m

0.00 mm

11:40

17.1 C

1016.1 hpa

65 %

9.7 km/h aus 113

22.5 km/h aus W

10.4 C

16.7 C

17.1 C

16.7 C

0 W/m

0.00 mm

11:45

17.1 C

1016.0 hpa

67 %

12.9 km/h aus 118

22.5 km/h aus SW

10.9 C

16.2 C

16.5 C

16.8 C

0 W/m

0.00 mm

11:50

16.9 C

1016.0 hpa

66 %

9.7 km/h aus 116

20.9 km/h aus WSW

10.5 C

16.6 C

16.9 C

16.6 C

0 W/m

0.00 mm

11:55

16.6 C

1016.0 hpa

66 %

8.0 km/h aus 115

16.1 km/h aus NW

10.2 C

16.2 C

16.6 C

16.2 C

0 W/m

0.00 mm

12:00

16.7 C

1016.0 hpa

67 %

8.0 km/h aus 115

17.7 km/h aus W

10.6 C

16.4 C

16.7 C

16.4 C

0 W/m

0.00 mm

12:05

17.3 C

1016.0 hpa

64 %

9.7 km/h aus 114

17.7 km/h aus SW

10.4 C

16.9 C

17.3 C

16.9 C

0 W/m

0.00 mm

12:10

17.5 C

1016.0 hpa

63 %

11.3 km/h aus 114

22.5 km/h aus W

10.4 C

17.1 C

17.5 C

17.1 C

0 W/m

0.00 mm

12:15

18.0 C

1016.0 hpa

61 %

11.3 km/h aus 116

22.5 km/h aus W

10.4 C

17.6 C

18.0 C

17.6 C

0 W/m

0.00 mm

12:20

17.5 C

1016.0 hpa

61 %

8.0 km/h aus 116

19.3 km/h aus W

9.9 C

17.0 C

17.5 C

17.0 C

0 W/m

0.00 mm

12:25

17.1 C

1016.0 hpa

64 %

11.3 km/h aus 116

17.7 km/h aus WSW

10.2 C

16.6 C

16.9 C

16.7 C

0 W/m

0.00 mm

12:30

16.8 C

1015.9 hpa

64 %

9.7 km/h aus 114

20.9 km/h aus W

9.9 C

16.3 C

16.8 C

16.3 C

0 W/m

0.00 mm

12:35

16.6 C

1015.9 hpa

63 %

11.3 km/h aus 110

20.9 km/h aus W

9.5 C

15.8 C

16.3 C

16.1 C

0 W/m

0.00 mm

12:40

16.6 C

1015.9 hpa

62 %

11.3 km/h aus 112

24.1 km/h aus WSW

9.2 C

15.8 C

16.3 C

16.0 C

0 W/m

0.00 mm

12:45

16.6 C

1015.8 hpa

63 %

14.5 km/h aus 115

24.1 km/h aus WSW

9.5 C

14.9 C

15.4 C

16.1 C

0 W/m

0.00 mm

12:50

16.7 C

1015.8 hpa

64 %

8.0 km/h aus 115

16.1 km/h aus SW

9.8 C

16.2 C

16.7 C

16.2 C

0 W/m

0.00 mm

12:55

16.7 C

1015.8 hpa

65 %

11.3 km/h aus 112

20.9 km/h aus WSW

10.1 C

16.1 C

16.5 C

16.3 C

0 W/m

0.00 mm

13:00

16.7 C

1015.5 hpa

64 %

11.3 km/h aus 111

20.9 km/h aus SW

9.9 C

16.1 C

16.6 C

16.3 C

0 W/m

0.00 mm

13:05

16.9 C

1015.5 hpa

63 %

12.9 km/h aus 115

24.1 km/h aus WSW

9.8 C

15.9 C

16.4 C

16.5 C

0 W/m

0.00 mm

13:10

16.9 C

1015.5 hpa

62 %

14.5 km/h aus 113

27.4 km/h aus WSW

9.6 C

15.4 C

15.9 C

16.4 C

0 W/m

0.00 mm

13:15

17.0 C

1015.4 hpa

63 %

11.3 km/h aus 116

22.5 km/h aus WSW

9.9 C

16.4 C

16.9 C

16.6 C

0 W/m

0.00 mm

13:20

17.1 C

1015.4 hpa

64 %

12.9 km/h aus 116

29.0 km/h aus SW

10.2 C

16.2 C

16.6 C

16.7 C

0 W/m

0.00 mm

13:25

16.9 C

1015.4 hpa

65 %

11.3 km/h aus 114

19.3 km/h aus SW

10.3 C

16.5 C

16.8 C

16.6 C

0 W/m

0.00 mm

13:30

17.0 C

1015.4 hpa

64 %

12.9 km/h aus 116

25.7 km/h aus WSW

10.1 C

16.1 C

16.4 C

16.6 C

0 W/m

0.00 mm

13:35

16.8 C

1015.4 hpa

66 %

14.5 km/h aus 112

27.4 km/h aus SW

10.4 C

15.4 C

15.8 C

16.5 C

0 W/m

0.00 mm

13:40

16.7 C

1015.4 hpa

67 %

12.9 km/h aus 114

24.1 km/h aus W

10.5 C

15.7 C

16.1 C

16.3 C

0 W/m

0.00 mm

13:45

16.8 C

1015.2 hpa

66 %

14.5 km/h aus 117

24.1 km/h aus WSW

10.4 C

15.3 C

15.7 C

16.4 C

0 W/m

0.00 mm

13:50

16.8 C

1015.2 hpa

67 %

14.5 km/h aus 117

27.4 km/h aus SW

10.7 C

15.4 C

15.8 C

16.5 C

0 W/m

0.00 mm

13:55

16.9 C

1015.2 hpa

66 %

11.3 km/h aus 114

22.5 km/h aus WSW

10.5 C

16.4 C

16.8 C

16.6 C

0 W/m

0.00 mm

14:00

16.7 C

1015.0 hpa

67 %

11.3 km/h aus 115

22.5 km/h aus SW

10.6 C

16.2 C

16.6 C

16.4 C

0 W/m

0.00 mm

14:05

16.9 C

1015.0 hpa

66 %

12.9 km/h aus 114

24.1 km/h aus SW

10.5 C

16.0 C

16.3 C

16.6 C

0 W/m

0.00 mm

14:10

17.8 C

1015.0 hpa

65 %

11.3 km/h aus 112

22.5 km/h aus SW

11.1 C

17.5 C

17.8 C

17.5 C

0 W/m

0.00 mm

14:15

18.0 C

1014.9 hpa

63 %

11.3 km/h aus 114

20.9 km/h aus SW

10.8 C

17.7 C

18.0 C

17.7 C

0 W/m

0.00 mm

14:20

17.9 C

1014.9 hpa

60 %

14.5 km/h aus 114

27.4 km/h aus WSW

10.0 C

16.5 C

17.0 C

17.4 C

0 W/m

0.00 mm

14:25

17.7 C

1014.9 hpa

61 %

16.1 km/h aus 116

25.7 km/h aus WSW

10.0 C

15.8 C

16.3 C

17.2 C

0 W/m

0.00 mm

14:30

17.4 C

1014.9 hpa

60 %

14.5 km/h aus 112

29.0 km/h aus SW

9.6 C

15.9 C

16.5 C

16.9 C

0 W/m

0.00 mm

14:35

17.2 C

1014.9 hpa

61 %

16.1 km/h aus 116

30.6 km/h aus W

9.6 C

15.3 C

15.8 C

16.7 C

0 W/m

0.00 mm

14:40

17.2 C

1014.9 hpa

61 %

14.5 km/h aus 115

29.0 km/h aus WSW

9.6 C

15.6 C

16.2 C

16.6 C

0 W/m

0.00 mm

14:45

17.2 C

1014.9 hpa

62 %

14.5 km/h aus 117

25.7 km/h aus SW

9.9 C

15.7 C

16.2 C

16.7 C

0 W/m

0.00 mm

14:50

17.2 C

1014.9 hpa

63 %

14.5 km/h aus 116

24.1 km/h aus W

10.1 C

15.8 C

16.2 C

16.8 C

0 W/m

0.00 mm

14:55

17.2 C

1014.9 hpa

61 %

11.3 km/h aus 115

25.7 km/h aus WSW

9.6 C

16.6 C

17.2 C

16.7 C

0 W/m

0.00 mm

15:00

17.2 C

1014.9 hpa

63 %

12.9 km/h aus 112

30.6 km/h aus WSW

10.1 C

16.2 C

16.7 C

16.7 C

0 W/m

0.00 mm

15:05

17.1 C

1014.9 hpa

63 %

9.7 km/h aus 116

20.9 km/h aus SW

10.0 C

16.7 C

17.1 C

16.7 C

0 W/m

0.00 mm

15:10

17.1 C

1014.9 hpa

62 %

12.9 km/h aus 115

25.7 km/h aus WSW

9.7 C

16.0 C

16.5 C

16.6 C

0 W/m

0.00 mm

15:15

17.1 C

1014.9 hpa

62 %

14.5 km/h aus 115

29.0 km/h aus WSW

9.7 C

15.5 C

16.0 C

16.6 C

0 W/m

0.00 mm

15:20

17.0 C

1014.9 hpa

63 %

14.5 km/h aus 113

24.1 km/h aus WSW

9.9 C

15.5 C

15.9 C

16.6 C

0 W/m

0.00 mm

15:25

16.9 C

1014.9 hpa

63 %

14.5 km/h aus 110

27.4 km/h aus WSW

9.8 C

15.4 C

15.9 C

16.5 C

0 W/m

0.00 mm

15:30

16.8 C

1014.9 hpa

63 %

19.3 km/h aus 110

33.8 km/h aus WSW

9.7 C

14.1 C

14.6 C

16.3 C

0 W/m

0.00 mm

15:35

16.7 C

1014.9 hpa

65 %

16.1 km/h aus 115

29.0 km/h aus SW

10.1 C

14.8 C

15.2 C

16.3 C

0 W/m

0.00 mm

15:40

16.7 C

1014.9 hpa

65 %

12.9 km/h aus 115

22.5 km/h aus WSW

10.1 C

15.7 C

16.1 C

16.3 C

0 W/m

0.00 mm

15:45

16.7 C

1014.9 hpa

64 %

14.5 km/h aus 112

27.4 km/h aus WSW

9.9 C

15.2 C

15.6 C

16.3 C

0 W/m

0.00 mm

15:50

16.7 C

1014.9 hpa

65 %

11.3 km/h aus 112

25.7 km/h aus WSW

10.1 C

16.2 C

16.6 C

16.3 C

0 W/m

0.00 mm

15:55

16.7 C

1014.9 hpa

65 %

16.1 km/h aus 114

25.7 km/h aus W

10.1 C

14.8 C

15.2 C

16.3 C

0 W/m

0.00 mm

16:00

16.7 C

1014.8 hpa

65 %

11.3 km/h aus 115

25.7 km/h aus WNW

10.1 C

16.2 C

16.6 C

16.3 C

0 W/m

0.00 mm

16:05

16.7 C

1014.8 hpa

65 %

17.7 km/h aus 113

29.0 km/h aus WSW

10.1 C

14.4 C

14.8 C

16.3 C

0 W/m

0.00 mm

16:10

16.6 C

1014.8 hpa

66 %

14.5 km/h aus 114

30.6 km/h aus WNW

10.2 C

15.1 C

15.5 C

16.2 C

0 W/m

0.00 mm

16:15

16.6 C

1014.9 hpa

66 %

16.1 km/h aus 112

32.2 km/h aus WSW

10.2 C

14.7 C

15.1 C

16.2 C

0 W/m

0.00 mm

16:20

16.4 C

1014.9 hpa

67 %

17.7 km/h aus 117

30.6 km/h aus WSW

10.3 C

14.2 C

14.6 C

16.1 C

0 W/m

0.00 mm

16:25

16.3 C

1014.9 hpa

69 %

8.0 km/h aus 117

20.9 km/h aus W

10.6 C

16.0 C

16.3 C

16.0 C

0 W/m

0.00 mm

16:30

16.4 C

1014.8 hpa

68 %

12.9 km/h aus 114

20.9 km/h aus WSW

10.5 C

15.4 C

15.7 C

16.1 C

0 W/m

0.00 mm

16:35

16.5 C

1014.8 hpa

67 %

16.1 km/h aus 115

30.6 km/h aus W

10.3 C

14.6 C

14.9 C

16.2 C

0 W/m

0.00 mm

16:40

16.5 C

1014.8 hpa

68 %

17.7 km/h aus 115

37.0 km/h aus WNW

10.6 C

14.3 C

14.6 C

16.2 C

0 W/m

0.00 mm

16:45

16.4 C

1014.6 hpa

69 %

16.1 km/h aus 114

27.4 km/h aus WSW

10.7 C

14.5 C

14.8 C

16.1 C

0 W/m

0.00 mm

16:50

16.4 C

1014.6 hpa

70 %

11.3 km/h aus 117

24.1 km/h aus W

10.9 C

15.9 C

16.2 C

16.1 C

0 W/m

0.00 mm

16:55

16.3 C

1014.6 hpa

70 %

14.5 km/h aus 114

27.4 km/h aus SW

10.8 C

14.8 C

15.2 C

16.0 C

0 W/m

0.00 mm

17:00

16.3 C

1014.5 hpa

70 %

14.5 km/h aus 115

25.7 km/h aus WSW

10.8 C

14.8 C

15.1 C

15.9 C

0 W/m

0.00 mm

17:05

16.3 C

1014.5 hpa

71 %

12.9 km/h aus 105

22.5 km/h aus WSW

11.0 C

15.3 C

15.6 C

16.0 C

0 W/m

0.00 mm

17:10

16.3 C

1014.5 hpa

71 %

11.3 km/h aus 114

20.9 km/h aus SW

11.0 C

15.7 C

16.0 C

16.0 C

0 W/m

0.00 mm

17:15

16.2 C

1014.4 hpa

72 %

12.9 km/h aus 110

22.5 km/h aus W

11.2 C

15.2 C

15.5 C

15.9 C

0 W/m

0.00 mm

17:20

16.2 C

1014.4 hpa

72 %

17.7 km/h aus 112

30.6 km/h aus WSW

11.1 C

13.9 C

14.2 C

15.9 C

0 W/m

0.00 mm

17:25

16.1 C

1014.4 hpa

72 %

17.7 km/h aus 115

30.6 km/h aus WSW

11.1 C

13.9 C

14.2 C

15.8 C

0 W/m

0.00 mm

17:30

16.0 C

1014.4 hpa

73 %

16.1 km/h aus 110

30.6 km/h aus SW

11.2 C

14.2 C

14.4 C

15.8 C

0 W/m

0.00 mm

17:35

15.9 C

1014.4 hpa

74 %

20.9 km/h aus 114

30.6 km/h aus WSW

11.3 C

13.2 C

13.4 C

15.7 C

0 W/m

0.00 mm

17:40

15.8 C

1014.4 hpa

74 %

19.3 km/h aus 115

33.8 km/h aus SW

11.2 C

13.3 C

13.6 C

15.6 C

0 W/m

0.00 mm

17:45

15.7 C

1014.4 hpa

75 %

22.5 km/h aus 114

32.2 km/h aus SW

11.3 C

12.7 C

12.9 C

15.5 C

0 W/m

0.00 mm

17:50

15.6 C

1014.4 hpa

76 %

16.1 km/h aus 112

25.7 km/h aus SSW

11.4 C

13.8 C

13.9 C

15.4 C

0 W/m

0.00 mm

17:55

15.6 C

1014.4 hpa

77 %

14.5 km/h aus 112

25.7 km/h aus WSW

11.5 C

14.1 C

14.3 C

15.4 C

0 W/m

0.00 mm

18:00

15.6 C

1014.4 hpa

77 %

11.3 km/h aus 112

22.5 km/h aus SW

11.6 C

15.0 C

15.2 C

15.4 C

0 W/m

0.00 mm

18:05

15.6 C

1014.4 hpa

77 %

14.5 km/h aus 114

29.0 km/h aus W

11.6 C

14.2 C

14.3 C

15.4 C

0 W/m

0.00 mm

18:10

15.6 C

1014.4 hpa

77 %

12.9 km/h aus 113

24.1 km/h aus WSW

11.6 C

14.6 C

14.8 C

15.4 C

0 W/m

0.00 mm

18:15

15.6 C

1014.4 hpa

78 %

14.5 km/h aus 111

24.1 km/h aus SW

11.7 C

14.2 C

14.3 C

15.4 C

0 W/m

0.00 mm

18:20

15.6 C

1014.4 hpa

78 %

14.5 km/h aus 110

27.4 km/h aus WSW

11.8 C

14.2 C

14.3 C

15.5 C

0 W/m

0.00 mm

18:25

15.6 C

1014.4 hpa

78 %

16.1 km/h aus 115

27.4 km/h aus WSW

11.8 C

13.8 C

13.9 C

15.5 C

0 W/m

0.00 mm

18:30

15.6 C

1014.4 hpa

78 %

14.5 km/h aus 108

30.6 km/h aus SW

11.8 C

14.2 C

14.3 C

15.5 C

0 W/m

0.00 mm

18:35

15.6 C

1014.4 hpa

79 %

17.7 km/h aus 115

30.6 km/h aus SW

12.0 C

13.4 C

13.6 C

15.5 C

0 W/m

0.00 mm

18:40

15.6 C

1014.4 hpa

79 %

12.9 km/h aus 109

29.0 km/h aus WSW

11.9 C

14.6 C

14.7 C

15.4 C

0 W/m

0.00 mm

18:45

15.4 C

1014.4 hpa

80 %

19.3 km/h aus 114

30.6 km/h aus W

12.0 C

13.1 C

13.1 C

15.4 C

0 W/m

0.00 mm

18:50

15.4 C

1014.4 hpa

80 %

17.7 km/h aus 114

29.0 km/h aus W

12.0 C

13.3 C

13.3 C

15.3 C

0 W/m

0.00 mm

18:55

15.3 C

1014.4 hpa

80 %

11.3 km/h aus 114

19.3 km/h aus WSW

11.9 C

14.8 C

14.8 C

15.3 C

0 W/m

0.00 mm

19:00

15.3 C

1014.4 hpa

80 %

14.5 km/h aus 112

27.4 km/h aus SW

11.9 C

13.9 C

14.0 C

15.3 C

0 W/m

0.00 mm

19:05

15.3 C

1014.4 hpa

81 %

14.5 km/h aus 111

27.4 km/h aus SW

12.0 C

13.9 C

13.9 C

15.2 C

0 W/m

0.00 mm

19:10

15.2 C

1014.4 hpa

82 %

12.9 km/h aus 111

22.5 km/h aus WSW

12.1 C

14.2 C

14.3 C

15.1 C

0 W/m

0.00 mm

19:15

15.0 C

1014.3 hpa

84 %

12.9 km/h aus 115

27.4 km/h aus SW

12.3 C

14.1 C

14.1 C

15.0 C

0 W/m

0.00 mm

19:20

15.0 C

1014.3 hpa

84 %

12.9 km/h aus 112

27.4 km/h aus WSW

12.3 C

14.1 C

14.1 C

15.0 C

0 W/m

0.00 mm

19:25

15.0 C

1014.3 hpa

85 %

14.5 km/h aus 113

29.0 km/h aus SW

12.5 C

13.6 C

13.6 C

15.0 C

0 W/m

0.00 mm

19:30

14.8 C

1014.3 hpa

86 %

16.1 km/h aus 116

22.5 km/h aus WSW

12.5 C

13.0 C

13.0 C

14.8 C

0 W/m

0.00 mm

19:35

14.7 C

1014.3 hpa

87 %

14.5 km/h aus 115

32.2 km/h aus SW

12.5 C

13.2 C

13.2 C

14.7 C

0 W/m

0.00 mm

19:40

14.6 C

1014.3 hpa

88 %

12.9 km/h aus 112

22.5 km/h aus WSW

12.6 C

13.5 C

13.5 C

14.6 C

0 W/m

0.00 mm

19:45

14.5 C

1014.4 hpa

89 %

16.1 km/h aus 110

25.7 km/h aus WSW

12.7 C

12.7 C

12.6 C

14.6 C

0 W/m

0.00 mm

19:50

14.4 C

1014.4 hpa

89 %

14.5 km/h aus 112

25.7 km/h aus WSW

12.7 C

13.0 C

12.9 C

14.5 C

0 W/m

0.00 mm

19:55

14.4 C

1014.4 hpa

90 %

14.5 km/h aus 111

22.5 km/h aus WSW

12.8 C

12.9 C

12.9 C

14.4 C

0 W/m

0.00 mm

20:00

14.4 C

1014.4 hpa

90 %

12.9 km/h aus 111

22.5 km/h aus WSW

12.8 C

13.4 C

13.3 C

14.4 C

0 W/m

0.00 mm

20:05

14.4 C

1014.4 hpa

90 %

14.5 km/h aus 112

27.4 km/h aus WSW

12.8 C

12.9 C

12.9 C

14.4 C

0 W/m

0.20 mm

20:10

14.4 C

1014.4 hpa

90 %

12.9 km/h aus 114

22.5 km/h aus SSW

12.8 C

13.4 C

13.3 C

14.4 C

0 W/m

0.00 mm

20:15

14.4 C

1014.4 hpa

90 %

12.9 km/h aus 113

24.1 km/h aus SW

12.8 C

13.4 C

13.4 C

14.5 C

0 W/m

0.00 mm

20:20

14.5 C

1014.4 hpa

90 %

12.9 km/h aus 113

24.1 km/h aus SW

12.9 C

13.5 C

13.4 C

14.6 C

0 W/m

0.00 mm

20:25

14.5 C

1014.4 hpa

90 %

11.3 km/h aus 114

22.5 km/h aus SW

12.9 C

13.9 C

13.8 C

14.6 C

0 W/m

0.00 mm

20:30

14.6 C

1014.4 hpa

90 %

12.9 km/h aus 115

22.5 km/h aus WSW

12.9 C

13.6 C

13.5 C

14.6 C

0 W/m

0.00 mm

20:35

14.6 C

1014.4 hpa

92 %

14.5 km/h aus 110

25.7 km/h aus WSW

13.3 C

13.3 C

13.2 C

14.7 C

0 W/m

0.00 mm

20:40

14.7 C

1014.4 hpa

90 %

12.9 km/h aus 113

24.1 km/h aus SW

13.0 C

13.7 C

13.7 C

14.7 C

0 W/m

0.00 mm

20:45

14.7 C

1014.6 hpa

89 %

12.9 km/h aus 111

24.1 km/h aus W

12.9 C

13.7 C

13.7 C

14.7 C

0 W/m

0.00 mm

20:50

14.7 C

1014.6 hpa

90 %

9.7 km/h aus 110

20.9 km/h aus WSW

13.0 C

14.3 C

14.3 C

14.7 C

0 W/m

0.00 mm

20:55

14.6 C

1014.6 hpa

90 %

11.3 km/h aus 113

20.9 km/h aus WSW

13.0 C

14.1 C

14.0 C

14.7 C

0 W/m

0.00 mm

21:00

14.7 C

1014.7 hpa

90 %

12.9 km/h aus 116

20.9 km/h aus WSW

13.0 C

13.7 C

13.7 C

14.7 C

0 W/m

0.00 mm

21:05

14.7 C

1014.7 hpa

90 %

12.9 km/h aus 112

24.1 km/h aus SW

13.0 C

13.7 C

13.7 C

14.7 C

0 W/m

0.00 mm

21:10

14.7 C

1014.7 hpa

90 %

12.9 km/h aus 116

25.7 km/h aus SW

13.1 C

13.8 C

13.7 C

14.8 C

0 W/m

0.00 mm

21:15

14.8 C

1014.7 hpa

89 %

16.1 km/h aus 110

25.7 km/h aus WSW

13.0 C

13.0 C

12.9 C

14.8 C

0 W/m

0.00 mm

21:20

14.8 C

1014.7 hpa

89 %

14.5 km/h aus 112

33.8 km/h aus WSW

13.0 C

13.4 C

13.4 C

14.9 C

0 W/m

0.00 mm

21:25

14.8 C

1014.7 hpa

90 %

12.9 km/h aus 107

22.5 km/h aus WSW

13.2 C

13.9 C

13.8 C

14.9 C

0 W/m

0.00 mm

21:30

14.7 C

1014.9 hpa

91 %

11.3 km/h aus 106

22.5 km/h aus WSW

13.2 C

14.2 C

14.1 C

14.8 C

0 W/m

0.00 mm

21:35

14.6 C

1014.9 hpa

92 %

12.9 km/h aus 114

22.5 km/h aus W

13.3 C

13.6 C

13.5 C

14.7 C

0 W/m

0.00 mm

21:40

14.5 C

1014.9 hpa

92 %

8.0 km/h aus 114

17.7 km/h aus W

13.2 C

14.4 C

14.3 C

14.6 C

0 W/m

0.20 mm

21:45

14.5 C

1015.1 hpa

92 %

9.7 km/h aus 112

19.3 km/h aus W

13.2 C

14.2 C

14.1 C

14.6 C

0 W/m

0.00 mm

21:50

14.5 C

1015.1 hpa

93 %

6.4 km/h aus 112

11.3 km/h aus SW

13.4 C

14.6 C

14.5 C

14.6 C

0 W/m

0.00 mm

21:55

14.4 C

1015.1 hpa

93 %

8.0 km/h aus 112

16.1 km/h aus WSW

13.3 C

14.3 C

14.2 C

14.6 C

0 W/m

0.20 mm

22:00

14.5 C

1014.9 hpa

93 %

9.7 km/h aus 115

22.5 km/h aus SW

13.4 C

14.2 C

14.1 C

14.6 C

0 W/m

0.00 mm

22:05

14.5 C

1014.9 hpa

93 %

11.3 km/h aus 111

17.7 km/h aus WSW

13.4 C

13.9 C

13.8 C

14.6 C

0 W/m

0.00 mm

22:10

14.6 C

1014.9 hpa

93 %

9.7 km/h aus 112

19.3 km/h aus WSW

13.4 C

14.2 C

14.1 C

14.7 C

0 W/m

0.00 mm

22:15

14.6 C

1014.9 hpa

93 %

9.7 km/h aus 116

19.3 km/h aus WSW

13.5 C

14.3 C

14.2 C

14.7 C

0 W/m

0.00 mm

22:20

14.6 C

1014.9 hpa

92 %

14.5 km/h aus 111

22.5 km/h aus WNW

13.3 C

13.3 C

13.2 C

14.7 C

0 W/m

0.00 mm

22:25

14.7 C

1014.9 hpa

92 %

9.7 km/h aus 110

20.9 km/h aus NW

13.4 C

14.4 C

14.3 C

14.8 C

0 W/m

0.00 mm

22:30

14.7 C

1014.9 hpa

92 %

9.7 km/h aus 113

24.1 km/h aus WNW

13.4 C

14.4 C

14.3 C

14.8 C

0 W/m

0.00 mm

22:35

14.7 C

1014.9 hpa

92 %

9.7 km/h aus 115

17.7 km/h aus WNW

13.4 C

14.4 C

14.3 C

14.8 C

0 W/m

0.00 mm

22:40

14.8 C

1014.9 hpa

92 %

9.7 km/h aus 113

19.3 km/h aus W

13.5 C

14.5 C

14.4 C

14.9 C

0 W/m

0.00 mm

22:45

14.8 C

1014.9 hpa

91 %

9.7 km/h aus 113

16.1 km/h aus W

13.3 C

14.5 C

14.4 C

14.9 C

0 W/m

0.00 mm

22:50

14.8 C

1014.9 hpa

91 %

8.0 km/h aus 107

14.5 km/h aus WNW

13.3 C

14.7 C

14.6 C

14.9 C

0 W/m

0.00 mm

22:55

14.8 C

1014.9 hpa

91 %

9.7 km/h aus 110

17.7 km/h aus WNW

13.3 C

14.5 C

14.4 C

14.9 C

0 W/m

0.00 mm

23:00

14.8 C

1015.0 hpa

91 %

6.4 km/h aus 111

17.7 km/h aus WNW

13.3 C

14.9 C

14.8 C

14.9 C

0 W/m

0.00 mm

23:05

14.8 C

1015.0 hpa

91 %

8.0 km/h aus 113

14.5 km/h aus W

13.3 C

14.7 C

14.6 C

14.9 C

0 W/m

0.00 mm

23:10

14.7 C

1015.0 hpa

90 %

8.0 km/h aus 114

17.7 km/h aus WNW

13.0 C

14.6 C

14.5 C

14.7 C

0 W/m

0.00 mm

23:15

14.7 C

1015.0 hpa

90 %

8.0 km/h aus 113

19.3 km/h aus W

13.1 C

14.6 C

14.6 C

14.8 C

0 W/m

0.00 mm

23:20

14.7 C

1015.0 hpa

90 %

9.7 km/h aus 115

17.7 km/h aus W

13.0 C

14.3 C

14.3 C

14.7 C

0 W/m

0.00 mm

23:25

14.7 C

1015.0 hpa

89 %

11.3 km/h aus 112

24.1 km/h aus WNW

12.9 C

14.2 C

14.1 C

14.8 C

0 W/m

0.00 mm

23:30

14.7 C

1015.2 hpa

89 %

9.7 km/h aus 110

19.3 km/h aus WNW

12.9 C

14.3 C

14.3 C

14.7 C

0 W/m

0.00 mm

23:35

14.7 C

1015.2 hpa

88 %

9.7 km/h aus 113

19.3 km/h aus NNW

12.7 C

14.3 C

14.3 C

14.7 C

0 W/m

0.00 mm

23:40

14.6 C

1015.2 hpa

88 %

8.0 km/h aus 112

17.7 km/h aus WNW

12.6 C

14.4 C

14.4 C

14.6 C

0 W/m

0.00 mm

23:45

14.6 C

1015.3 hpa

89 %

9.7 km/h aus 114

19.3 km/h aus WSW

12.8 C

14.2 C

14.1 C

14.6 C

0 W/m

0.00 mm

23:50

14.6 C

1015.3 hpa

89 %

8.0 km/h aus 115

17.7 km/h aus WSW

12.8 C

14.5 C

14.4 C

14.7 C

0 W/m

0.00 mm

23:55

14.6 C

1015.3 hpa

88 %

8.0 km/h aus 111

19.3 km/h aus WNW

12.6 C

14.4 C

14.4 C

14.6 C

0 W/m

0.00 mm